N343BH KOWB-KMLI

Flight info

Callsign N343BH
Flight time N/A
Altitude 38000
Route AXC
Aircraft E55P/M-SBDFGHJ2RWY/LB2

Departure

Time 2026-05-07 04:48
Airport Owensboro Daviess County Airport (KOWB)

Arrival

Time N/A
Airport Quad City International Airport (KMLI)
Time Latitude Longitude Altitude Speed Heading
2026-05-07 04:31 37.73708 -87.16405 398 ft 0 kts 90°
2026-05-07 04:41 37.73708 -87.16403 398 ft 0 kts 86°
2026-05-07 04:42 37.73711 -87.16394 398 ft 2 kts 53°
2026-05-07 04:42 37.73728 -87.16381 398 ft 1 kts 19°
2026-05-07 04:42 37.73736 -87.16379 399 ft 3 kts 10°
2026-05-07 04:42 37.73754 -87.16380 399 ft 2 kts 339°
2026-05-07 04:43 37.73774 -87.16395 399 ft 5 kts 323°
2026-05-07 04:43 37.73782 -87.16458 399 ft 10 kts 268°
2026-05-07 04:43 37.73780 -87.16503 399 ft 3 kts 268°
2026-05-07 04:43 37.73748 -87.16536 399 ft 10 kts 184°
2026-05-07 04:44 37.73654 -87.16532 398 ft 16 kts 178°
2026-05-07 04:44 37.73517 -87.16525 398 ft 22 kts 178°
2026-05-07 04:44 37.73373 -87.16520 397 ft 19 kts 176°
2026-05-07 04:44 37.73245 -87.16512 397 ft 17 kts 178°
2026-05-07 04:45 37.73136 -87.16508 397 ft 14 kts 178°
2026-05-07 04:45 37.73044 -87.16504 397 ft 11 kts 177°
2026-05-07 04:45 37.72971 -87.16499 397 ft 9 kts 178°
2026-05-07 04:45 37.72903 -87.16496 397 ft 12 kts 178°
2026-05-07 04:46 37.72803 -87.16490 397 ft 15 kts 177°
2026-05-07 04:46 37.72754 -87.16489 397 ft 6 kts 182°
2026-05-07 04:46 37.72718 -87.16512 397 ft 5 kts 236°
2026-05-07 04:46 37.72710 -87.16561 397 ft 6 kts 268°
2026-05-07 04:47 37.72709 -87.16621 397 ft 7 kts 277°
2026-05-07 04:47 37.72743 -87.16666 397 ft 7 kts 352°
2026-05-07 04:47 37.72963 -87.16678 397 ft 76 kts
2026-05-07 04:47 37.73763 -87.16716 675 ft 139 kts 359°
2026-05-07 04:48 37.74715 -87.16708 1644 ft 151 kts
2026-05-07 04:48 37.75724 -87.16618 2783 ft 151 kts
2026-05-07 04:48 37.76767 -87.16417 3808 ft 158 kts 11°
2026-05-07 04:48 37.77711 -87.16103 4961 ft 150 kts 18°
2026-05-07 04:49 37.78792 -87.15889 5654 ft 175 kts 349°
2026-05-07 04:49 37.79853 -87.16745 6439 ft 200 kts 306°
2026-05-07 04:49 37.80539 -87.18373 7343 ft 222 kts 297°
2026-05-07 04:49 37.81266 -87.20168 8363 ft 240 kts 297°
2026-05-07 04:50 37.82106 -87.22047 9374 ft 257 kts 306°
2026-05-07 04:50 37.83334 -87.23763 10391 ft 273 kts 317°
2026-05-07 04:50 37.84795 -87.25312 11388 ft 288 kts 322°
2026-05-07 04:50 37.86383 -87.26780 12366 ft 301 kts 325°
2026-05-07 04:51 37.88155 -87.28314 13388 ft 313 kts 326°
2026-05-07 04:51 37.89973 -87.29841 14388 ft 323 kts 327°
2026-05-07 04:51 37.91819 -87.31371 15369 ft 332 kts 327°
2026-05-07 04:51 37.93774 -87.32985 16380 ft 339 kts 327°
2026-05-07 04:52 37.95767 -87.34628 17390 ft 345 kts 327°
2026-05-07 04:52 37.97776 -87.36282 18391 ft 350 kts 327°
2026-05-07 04:52 37.99807 -87.37956 19391 ft 353 kts 327°
2026-05-07 04:52 38.01857 -87.39646 20392 ft 355 kts 327°
2026-05-07 04:53 38.03922 -87.41351 21392 ft 356 kts 327°
2026-05-07 04:53 38.05978 -87.43048 22206 ft 362 kts 327°
2026-05-07 04:53 38.08113 -87.44812 23043 ft 366 kts 327°
2026-05-07 04:53 38.10244 -87.46574 23870 ft 369 kts 327°
2026-05-07 04:54 38.12307 -87.48282 24663 ft 372 kts 327°
2026-05-07 04:54 38.14463 -87.50066 25487 ft 373 kts 327°
2026-05-07 04:54 38.16605 -87.51840 26303 ft 374 kts 327°
2026-05-07 04:54 38.18802 -87.53661 27138 ft 374 kts 327°
2026-05-07 04:55 38.20974 -87.55462 27964 ft 373 kts 327°
2026-05-07 04:55 38.23119 -87.57243 28783 ft 372 kts 327°
2026-05-07 04:55 38.25276 -87.59036 29609 ft 370 kts 327°
2026-05-07 04:55 38.27393 -87.60796 30426 ft 367 kts 327°
2026-05-07 04:56 38.29498 -87.62548 31245 ft 363 kts 327°
2026-05-07 04:56 38.31585 -87.64287 32067 ft 358 kts 327°
2026-05-07 04:56 38.33596 -87.65962 32869 ft 353 kts 327°
2026-05-07 04:56 38.35591 -87.67626 33678 ft 346 kts 327°
2026-05-07 04:57 38.37585 -87.69290 34406 ft 342 kts 327°
2026-05-07 04:57 38.39558 -87.70937 35157 ft 335 kts 327°
2026-05-07 04:57 38.41484 -87.72547 35670 ft 336 kts 327°
2026-05-07 04:57 38.43418 -87.74165 36166 ft 337 kts 327°
2026-05-07 04:58 38.45339 -87.75771 36656 ft 338 kts 327°
2026-05-07 04:58 38.47289 -87.77404 37152 ft 337 kts 327°
2026-05-07 04:58 38.49259 -87.79054 37655 ft 336 kts 327°
2026-05-07 04:58 38.51202 -87.80683 37960 ft 342 kts 327°
2026-05-07 04:59 38.53218 -87.82375 38007 ft 355 kts 327°
2026-05-07 04:59 38.55342 -87.84157 38013 ft 370 kts 327°
2026-05-07 04:59 38.57518 -87.85985 38014 ft 384 kts 327°
2026-05-07 04:59 38.59763 -87.87872 38014 ft 398 kts 327°